Location: Kuppenheim
(48.8299°N, 8.2568°E)
Time: 10:00:55
(UTC+00:00)

ERBS - Pass Details

Date: 20 June 2021
Orbit: 397 x 416 km, 57.0° (Epoch: 01 August)

Event Time Altitude Azimuth Distance (km) Brightness Sun altitude
Exits shadow 02:25:13 10° 210° (SSW) 1,430 4.3 -7.7°
Maximum altitude 02:28:15 43° 137° (SE) 575 2.9 -7.4°
Drops below altitude 10° 02:31:21 10° 65° (ENE) 1,457 6.3 -7.0°
Sets 02:33:29 0° 58° (ENE) 2,323 7.8 -6.8°
